Notices

What's New in latest Release from April 7th, 2021:

- Updated Glossary, including Speed of Maximum Gust, and Total Hourly Precipitation

- Updated national and regional climate services offices contacts and prices information

- Addition of station inventory lists for 1981-2010, 1971-2000, and 1961-1990 Normals.

If you haven't already, please take our survey and provide feedback about our website: https://eccc.sondage-survey.ca/f/LanguageSelection.aspx?s=442ca660-fcf1-47c0-95a9-59707d6fd709

Hourly Data Report for January 13, 2004

TORONTO CITY
ONTARIO

43°40'00.000" N
79°24'00.000" W
112.50 m
6158355
71508
XTO

Download Data

Hourly Data (January 2004)
Hourly Data Report for January 13, 2004
TIME
LST
Temp Definition
°C
Dew Point Definition
°C
Rel Hum Definition
%
Precip. Amount Definition
mm

Wind Dir Definition
10's deg

Wind Spd Definition
km/h
Visibility Definition
km
Stn Press Definition
kPa
Hmdx Definition


Wind Chill Definition


Weather Definition


00:00 -1.1 -3.0 87   LegendMM LegendMM LegendMM 99.87     LegendNANA
01:00 -0.7 -1.6 94   LegendMM LegendMM LegendMM 99.71     LegendNANA
02:00 0.2 -0.5 95   LegendMM LegendMM LegendMM 99.59     LegendNANA
03:00 0.7 -0.4 92   LegendMM LegendMM LegendMM 99.54     LegendNANA
04:00 0.7 -0.1 94   LegendMM LegendMM LegendMM 99.47     LegendNANA
05:00 0.9 0.0 94   LegendMM LegendMM LegendMM 99.43     LegendNANA
06:00 1.0 -1.6 83   LegendMM LegendMM LegendMM 99.49     LegendNANA
07:00 0.4 -3.6 74   LegendMM LegendMM LegendMM 99.61     LegendNANA
08:00 -2.5 -5.2 82   LegendMM LegendMM LegendMM 99.84     LegendNANA
09:00 -3.8 -8.9 68   LegendMM LegendMM LegendMM 100.02     LegendNANA
10:00 -6.5 -10.3 74   LegendMM LegendMM LegendMM 100.25     LegendNANA
11:00 -8.1 -13.1 67   LegendMM LegendMM LegendMM 100.41     LegendNANA
12:00 -8.7 -14.3 64   LegendMM LegendMM LegendMM 100.49     LegendNANA
13:00 -9.4 -14.1 69   LegendMM LegendMM LegendMM 100.55     LegendNANA
14:00 -10.4 -15.9 64   LegendMM LegendMM LegendMM 100.64     LegendNANA
15:00 -11.3 -16.8 64   LegendMM LegendMM LegendMM 100.76     LegendNANA
16:00 -12.0 -17.0 66   LegendMM LegendMM LegendMM 100.85     LegendNANA
17:00 -13.0 -17.7 68   LegendMM LegendMM LegendMM 100.97     LegendNANA
18:00 -14.3 -18.7 69   LegendMM LegendMM LegendMM 101.09     LegendNANA
19:00 -14.7 -18.9 70   LegendMM LegendMM LegendMM 101.18     LegendNANA
20:00 -15.3 -19.5 70   LegendMM LegendMM LegendMM 101.22     LegendNANA
21:00 -16.6 -21.9 64   LegendMM LegendMM LegendMM 101.26     LegendNANA
22:00 -18.0 -24.7 56   LegendMM LegendMM LegendMM 101.37     LegendNANA
23:00 -19.1 -25.5 57   LegendMM LegendMM LegendMM 101.31     LegendNANA

Notes on Data Quality.

Legend

  • E = Estimated
  • M = Missing
  • NA = Not Available*
  • [empty] = Indicates an unobserved value
Date modified: